TimeCDT,TemperatureF,Dew PointF,Humidity,Sea Level PressureIn,VisibilityMPH,Wind Direction,Wind SpeedMPH,Gust SpeedMPH,PrecipitationIn,Events,Conditions,WindDirDegrees,DateUTC
12:15 AM,54.0,54.0,100,30.04,10.0,WNW,5.8,-,N/A,,Clear,300,2013-09-29 05:15:00
12:35 AM,53.6,53.6,100,30.04,10.0,NW,5.8,-,N/A,,Clear,310,2013-09-29 05:35:00
12:55 AM,53.1,53.1,100,30.04,10.0,WNW,4.6,-,N/A,,Scattered Clouds,290,2013-09-29 05:55:00
1:15 AM,53.1,53.1,100,30.04,10.0,WNW,4.6,-,N/A,,Mostly Cloudy,300,2013-09-29 06:15:00
1:35 AM,53.1,53.1,100,30.04,3.0,Calm,Calm,-,N/A,,Overcast,0,2013-09-29 06:35:00
1:55 AM,51.6,51.6,100,30.04,7.0,NW,3.5,-,N/A,,Mostly Cloudy,310,2013-09-29 06:55:00
2:15 AM,51.6,51.6,100,30.04,0.2,NW,4.6,-,N/A,Fog,Fog,310,2013-09-29 07:15:00
2:35 AM,51.1,51.1,100,30.04,0.5,WNW,3.5,-,N/A,Fog,Fog,300,2013-09-29 07:35:00
2:55 AM,50.5,50.5,100,30.04,0.5,Calm,Calm,-,N/A,Fog,Fog,0,2013-09-29 07:55:00
3:15 AM,49.1,49.1,100,30.04,0.2,Calm,Calm,-,N/A,Fog,Fog,0,2013-09-29 08:15:00
3:35 AM,49.1,49.1,100,30.04,0.2,Calm,Calm,-,N/A,Fog,Fog,0,2013-09-29 08:35:00
3:55 AM,49.3,49.3,100,30.04,0.2,WNW,3.5,-,N/A,Fog,Fog,300,2013-09-29 08:55:00
4:15 AM,48.7,48.7,100,30.05,0.2,Calm,Calm,-,N/A,Fog,Fog,0,2013-09-29 09:15:00
4:35 AM,48.2,48.2,100,30.04,0.2,Calm,Calm,-,N/A,Fog,Fog,0,2013-09-29 09:35:00
4:55 AM,48.2,48.2,100,30.05,0.2,Calm,Calm,-,N/A,Fog,Fog,0,2013-09-29 09:55:00
5:35 AM,47.5,47.5,100,30.05,0.2,Calm,Calm,-,N/A,Fog,Fog,0,2013-09-29 10:35:00
5:55 AM,47.5,47.5,100,30.06,0.2,Calm,Calm,-,N/A,Fog,Fog,0,2013-09-29 10:55:00
6:15 AM,46.9,46.9,100,30.06,0.2,Calm,Calm,-,N/A,Fog,Fog,0,2013-09-29 11:15:00
6:35 AM,46.4,46.4,100,30.07,0.2,Calm,Calm,-,N/A,Fog,Fog,0,2013-09-29 11:35:00
6:55 AM,46.4,46.4,100,30.07,0.2,Calm,Calm,-,N/A,Fog,Fog,0,2013-09-29 11:55:00
7:15 AM,45.7,45.7,100,30.08,0.2,Calm,Calm,-,N/A,Fog,Fog,0,2013-09-29 12:15:00
7:35 AM,46.2,46.2,100,30.08,0.2,Calm,Calm,-,N/A,Fog,Fog,0,2013-09-29 12:35:00
7:55 AM,46.6,46.6,100,30.09,0.2,Calm,Calm,-,N/A,Fog,Fog,0,2013-09-29 12:55:00
8:15 AM,48.0,48.0,100,30.09,0.2,Calm,Calm,-,N/A,Fog,Fog,0,2013-09-29 13:15:00
8:35 AM,49.3,49.3,100,30.09,1.0,Calm,Calm,-,N/A,,Overcast,0,2013-09-29 13:35:00
8:55 AM,51.1,51.1,100,30.09,5.0,Calm,Calm,-,N/A,,Mostly Cloudy,0,2013-09-29 13:55:00
9:15 AM,53.2,53.2,100,30.09,10.0,NW,3.5,-,N/A,,Scattered Clouds,320,2013-09-29 14:15:00
9:35 AM,55.4,55.4,100,30.10,10.0,Calm,Calm,-,N/A,,Clear,0,2013-09-29 14:35:00
9:55 AM,58.1,54.7,88,30.10,10.0,Calm,Calm,-,N/A,,Clear,0,2013-09-29 14:55:00
10:15 AM,60.1,54.3,81,30.10,10.0,Calm,Calm,-,N/A,,Clear,0,2013-09-29 15:15:00
10:35 AM,62.4,51.3,67,30.10,10.0,Calm,Calm,-,N/A,,Clear,0,2013-09-29 15:35:00
10:55 AM,63.9,49.8,60,30.10,10.0,NE,5.8,-,N/A,,Clear,50,2013-09-29 15:55:00
11:15 AM,64.8,47.1,53,30.10,10.0,NE,5.8,-,N/A,,Clear,40,2013-09-29 16:15:00
11:35 AM,66.0,46.2,49,30.09,10.0,NNE,9.2,-,N/A,,Clear,20,2013-09-29 16:35:00
11:55 AM,67.1,45.5,46,30.09,10.0,NNE,5.8,-,N/A,,Clear,20,2013-09-29 16:55:00
12:15 PM,68.0,44.2,42,30.09,10.0,NE,5.8,-,N/A,,Clear,40,2013-09-29 17:15:00
12:35 PM,68.5,42.3,38,30.08,10.0,NE,8.1,-,N/A,,Clear,50,2013-09-29 17:35:00
12:55 PM,69.4,43.7,39,30.07,10.0,NE,8.1,-,N/A,,Clear,40,2013-09-29 17:55:00
1:15 PM,69.8,42.3,37,30.06,10.0,NE,8.1,-,N/A,,Clear,40,2013-09-29 18:15:00
1:35 PM,70.7,43.3,37,30.05,10.0,NNW,5.8,-,N/A,,Clear,340,2013-09-29 18:35:00
1:55 PM,71.2,42.3,35,30.04,10.0,North,6.9,-,N/A,,Clear,10,2013-09-29 18:55:00
2:15 PM,71.8,42.8,35,30.03,10.0,NNE,6.9,-,N/A,,Clear,30,2013-09-29 19:15:00
2:35 PM,72.1,43.0,35,30.03,10.0,NNE,9.2,-,N/A,,Clear,30,2013-09-29 19:35:00
2:55 PM,72.3,42.1,34,30.02,10.0,North,5.8,-,N/A,,Clear,10,2013-09-29 19:55:00
3:15 PM,72.3,41.7,33,30.01,10.0,NNE,9.2,-,N/A,,Clear,20,2013-09-29 20:15:00
3:35 PM,72.3,41.5,33,30.01,10.0,NE,5.8,-,N/A,,Clear,50,2013-09-29 20:35:00
3:55 PM,71.6,41.0,33,30.01,10.0,NNE,8.1,-,N/A,,Clear,30,2013-09-29 20:55:00
4:15 PM,72.5,41.7,33,30.01,10.0,NE,5.8,-,N/A,,Clear,40,2013-09-29 21:15:00
4:35 PM,72.1,41.4,33,30.00,10.0,NE,8.1,-,N/A,,Clear,50,2013-09-29 21:35:00
4:55 PM,71.6,40.3,32,30.00,10.0,ENE,5.8,-,N/A,,Clear,70,2013-09-29 21:55:00
5:15 PM,71.1,40.8,33,30.00,10.0,East,4.6,-,N/A,,Clear,80,2013-09-29 22:15:00
5:35 PM,70.5,40.6,34,30.00,10.0,NE,4.6,-,N/A,,Clear,50,2013-09-29 22:35:00
5:55 PM,68.2,41.7,38,30.00,10.0,ENE,3.5,-,N/A,,Clear,60,2013-09-29 22:55:00
6:15 PM,66.2,43.5,44,30.00,10.0,Calm,Calm,-,N/A,,Clear,0,2013-09-29 23:15:00
6:35 PM,63.3,44.1,49,30.00,10.0,Calm,Calm,-,N/A,,Clear,0,2013-09-29 23:35:00
6:55 PM,58.3,46.0,64,30.00,10.0,East,3.5,-,N/A,,Clear,100,2013-09-29 23:55:00
7:15 PM,57.4,45.7,65,29.99,10.0,ESE,3.5,-,N/A,,Clear,110,2013-09-30 00:15:00
7:35 PM,58.5,44.2,59,30.00,10.0,ESE,3.5,-,N/A,,Clear,120,2013-09-30 00:35:00
7:55 PM,59.2,43.7,57,30.00,10.0,ESE,3.5,-,N/A,,Clear,120,2013-09-30 00:55:00
8:15 PM,56.5,44.8,65,30.00,10.0,Calm,Calm,-,N/A,,Clear,0,2013-09-30 01:15:00
8:35 PM,57.2,44.4,62,30.01,10.0,ESE,3.5,-,N/A,,Clear,120,2013-09-30 01:35:00
8:55 PM,57.0,44.6,63,30.00,10.0,SE,3.5,-,N/A,,Clear,130,2013-09-30 01:55:00
9:15 PM,56.3,44.8,65,30.00,10.0,SE,3.5,-,N/A,,Clear,130,2013-09-30 02:15:00
9:35 PM,54.1,45.1,72,30.01,10.0,Calm,Calm,-,N/A,,Clear,0,2013-09-30 02:35:00
9:55 PM,49.6,45.7,86,30.00,10.0,Calm,Calm,-,N/A,,Clear,0,2013-09-30 02:55:00
10:15 PM,50.9,46.0,83,30.00,10.0,Calm,Calm,-,N/A,,Clear,0,2013-09-30 03:15:00
10:35 PM,48.4,45.7,90,30.01,10.0,Calm,Calm,-,N/A,,Clear,0,2013-09-30 03:35:00
10:55 PM,46.8,45.5,95,30.01,10.0,Calm,Calm,-,N/A,,Clear,0,2013-09-30 03:55:00
11:15 PM,45.3,44.2,96,30.00,10.0,Calm,Calm,-,N/A,,Clear,0,2013-09-30 04:15:00
11:35 PM,46.6,46.2,99,30.00,10.0,Calm,Calm,-,N/A,,Clear,0,2013-09-30 04:35:00
11:55 PM,46.4,45.9,98,30.00,10.0,Calm,Calm,-,N/A,,Clear,0,2013-09-30 04:55:00